Precipitable_Water
0.60 0.60 0.67 0.68 0.66 0.65 0.65 0.65 0.63 0.65 0.64 0.65 0.66 0.66 0.63 0.62 0.62 0.59 0.58 0.57 0.56 0.55 0.55 0.53 0.47 0.50 0.53 0.55 0.56 0.55 0.56 0.53 0.53 0.52 0.51 0.51 0.51 0.51 0.49 0.54 0.49 0.48 0.45 0.44 0.43 0.40 0.34 0.27 0.23 0.19 0.17 0.17
0.60 0.60 0.65 0.68 0.66 0.66 0.65 0.65 0.65 0.66 0.65 0.65 0.65 0.66 0.64 0.62 0.62 0.61 0.59 0.56 0.57 0.56 0.56 0.55 0.51 0.49 0.52 0.53 0.54 0.53 0.55 0.54 0.53 0.53 0.51 0.51 0.50 0.49 0.48 0.49 0.44 0.43 0.42 0.41 0.40 0.37 0.33 0.27 0.22 0.18 0.17 0.17
0.60 0.60 0.63 0.66 0.66 0.66 0.65 0.64 0.64 0.66 0.67 0.66 0.65 0.65 0.63 0.63 0.63 0.61 0.60 0.57 0.55 0.56 0.56 0.56 0.54 0.52 0.52 0.53 0.55 0.54 0.53 0.53 0.53 0.53 0.52 0.51 0.49 0.48 0.47 0.46 0.44 0.42 0.41 0.41 0.37 0.35 0.31 0.26 0.21 0.18 0.17 0.16
0.62 0.60 0.62 0.64 0.64 0.65 0.66 0.64 0.64 0.66 0.67 0.67 0.65 0.64 0.63 0.63 0.63 0.60 0.59 0.56 0.53 0.55 0.55 0.56 0.55 0.54 0.55 0.54 0.55 0.55 0.55 0.54 0.53 0.52 0.52 0.51 0.49 0.49 0.47 0.44 0.44 0.42 0.42 0.40 0.37 0.33 0.27 0.23 0.19 0.17 0.17 0.16
0.60 0.63 0.61 0.63 0.64 0.64 0.65 0.64 0.64 0.64 0.67 0.68 0.66 0.64 0.62 0.61 0.60 0.60 0.58 0.55 0.52 0.54 0.55 0.55 0.54 0.54 0.54 0.54 0.56 0.56 0.56 0.56 0.55 0.53 0.53 0.51 0.49 0.48 0.47 0.43 0.43 0.41 0.41 0.39 0.36 0.30 0.25 0.20 0.18 0.18 0.17 0.16
0.58 0.63 0.63 0.64 0.65 0.64 0.65 0.65 0.64 0.64 0.65 0.67 0.68 0.65 0.62 0.60 0.60 0.59 0.58 0.55 0.52 0.53 0.53 0.55 0.54 0.52 0.53 0.54 0.54 0.55 0.55 0.56 0.56 0.55 0.53 0.52 0.51 0.49 0.46 0.44 0.42 0.40 0.39 0.37 0.32 0.27 0.22 0.19 0.19 0.18 0.18 0.16
0.57 0.60 0.62 0.65 0.67 0.67 0.66 0.66 0.65 0.65 0.65 0.66 0.66 0.67 0.63 0.61 0.60 0.59 0.57 0.55 0.53 0.52 0.52 0.54 0.53 0.51 0.50 0.53 0.54 0.54 0.55 0.56 0.56 0.56 0.55 0.54 0.52 0.51 0.47 0.43 0.38 0.38 0.36 0.33 0.29 0.25 0.21 0.19 0.19 0.18 0.17 0.17
0.57 0.60 0.63 0.64 0.65 0.68 0.67 0.67 0.66 0.65 0.64 0.65 0.66 0.66 0.66 0.62 0.61 0.58 0.57 0.55 0.53 0.50 0.49 0.51 0.52 0.51 0.49 0.50 0.52 0.54 0.53 0.53 0.54 0.56 0.56 0.55 0.53 0.52 0.44 0.39 0.33 0.32 0.31 0.31 0.28 0.22 0.19 0.19 0.19 0.18 0.18 0.17
0.55 0.59 0.62 0.65 0.64 0.66 0.68 0.67 0.66 0.64 0.64 0.63 0.63 0.65 0.64 0.63 0.60 0.57 0.56 0.54 0.52 0.51 0.50 0.51 0.51 0.51 0.49 0.48 0.49 0.50 0.52 0.52 0.51 0.53 0.53 0.53 0.53 0.49 0.44 0.37 0.31 0.28 0.26 0.25 0.22 0.20 0.19 0.19 0.19 0.18 0.18 0.16
0.56 0.58 0.58 0.60 0.63 0.63 0.65 0.65 0.63 0.62 0.60 0.59 0.59 0.60 0.61 0.60 0.58 0.57 0.55 0.53 0.53 0.52 0.53 0.51 0.50 0.50 0.49 0.48 0.48 0.46 0.48 0.49 0.50 0.49 0.50 0.49 0.47 0.45 0.42 0.38 0.32 0.29 0.26 0.23 0.21 0.20 0.19 0.19 0.18 0.18 0.17 0.16
0.57 0.56 0.57 0.60 0.62 0.61 0.61 0.62 0.61 0.59 0.58 0.57 0.58 0.58 0.59 0.56 0.56 0.56 0.55 0.54 0.53 0.52 0.52 0.50 0.50 0.49 0.49 0.47 0.43 0.42 0.45 0.45 0.46 0.46 0.45 0.45 0.43 0.42 0.39 0.36 0.33 0.30 0.27 0.24 0.21 0.20 0.19 0.19 0.18 0.18 0.17 0.17
0.57 0.59 0.59 0.59 0.60 0.61 0.61 0.61 0.60 0.59 0.58 0.59 0.58 0.57 0.57 0.56 0.56 0.55 0.53 0.53 0.53 0.52 0.51 0.50 0.50 0.49 0.47 0.45 0.42 0.41 0.43 0.42 0.43 0.44 0.44 0.43 0.41 0.39 0.37 0.35 0.33 0.30 0.27 0.25 0.23 0.21 0.19 0.19 0.18 0.18 0.17 0.17
0.55 0.57 0.60 0.60 0.60 0.59 0.60 0.61 0.61 0.61 0.61 0.59 0.58 0.58 0.57 0.56 0.55 0.54 0.53 0.52 0.52 0.52 0.50 0.51 0.50 0.48 0.46 0.45 0.43 0.41 0.41 0.41 0.41 0.41 0.41 0.40 0.39 0.38 0.36 0.33 0.31 0.29 0.27 0.25 0.23 0.22 0.21 0.20 0.19 0.18 0.17 0.17
0.52 0.54 0.56 0.59 0.61 0.61 0.61 0.60 0.62 0.62 0.61 0.60 0.59 0.57 0.57 0.56 0.55 0.53 0.52 0.51 0.52 0.51 0.50 0.50 0.49 0.48 0.46 0.44 0.43 0.41 0.39 0.40 0.40 0.39 0.39 0.38 0.37 0.36 0.34 0.31 0.29 0.27 0.25 0.23 0.22 0.21 0.21 0.20 0.20 0.20 0.19 0.18
0.51 0.53 0.53 0.55 0.59 0.61 0.61 0.63 0.64 0.62 0.62 0.61 0.60 0.58 0.57 0.57 0.56 0.54 0.53 0.51 0.50 0.50 0.50 0.50 0.48 0.47 0.47 0.44 0.43 0.42 0.40 0.40 0.39 0.38 0.37 0.36 0.34 0.33 0.32 0.30 0.29 0.27 0.24 0.23 0.22 0.21 0.20 0.19 0.19 0.19 0.19 0.19
0.51 0.52 0.53 0.54 0.56 0.57 0.60 0.62 0.62 0.62 0.61 0.60 0.60 0.60 0.59 0.57 0.56 0.55 0.53 0.52 0.51 0.50 0.50 0.49 0.48 0.47 0.46 0.45 0.44 0.43 0.40 0.38 0.38 0.37 0.36 0.34 0.33 0.32 0.30 0.29 0.28 0.28 0.25 0.24 0.22 0.22 0.20 0.20 0.19 0.19 0.19 0.18
0.51 0.53 0.54 0.55 0.55 0.56 0.58 0.59 0.60 0.59 0.59 0.59 0.59 0.60 0.60 0.59 0.57 0.56 0.54 0.53 0.52 0.51 0.51 0.50 0.48 0.47 0.46 0.46 0.45 0.44 0.42 0.39 0.37 0.35 0.34 0.33 0.33 0.31 0.30 0.29 0.28 0.29 0.27 0.25 0.25 0.24 0.22 0.21 0.20 0.20 0.19 0.19
0.52 0.53 0.53 0.55 0.56 0.56 0.57 0.57 0.57 0.58 0.59 0.59 0.58 0.58 0.58 0.58 0.58 0.57 0.56 0.54 0.53 0.52 0.51 0.50 0.48 0.48 0.47 0.47 0.46 0.45 0.43 0.39 0.37 0.35 0.33 0.32 0.32 0.31 0.30 0.29 0.29 0.29 0.27 0.27 0.26 0.25 0.24 0.23 0.22 0.22 0.21 0.20
0.52 0.53 0.54 0.54 0.55 0.56 0.57 0.57 0.57 0.57 0.58 0.58 0.58 0.58 0.57 0.57 0.56 0.56 0.56 0.55 0.53 0.52 0.51 0.49 0.48 0.48 0.48 0.48 0.47 0.45 0.43 0.40 0.38 0.36 0.34 0.33 0.31 0.31 0.31 0.30 0.29 0.29 0.28 0.27 0.27 0.26 0.25 0.24 0.23 0.23 0.22 0.21
0.51 0.52 0.53 0.54 0.55 0.56 0.57 0.57 0.57 0.57 0.58 0.59 0.59 0.58 0.57 0.58 0.58 0.57 0.56 0.55 0.55 0.52 0.51 0.49 0.47 0.47 0.48 0.48 0.47 0.45 0.43 0.41 0.38 0.37 0.36 0.35 0.33 0.31 0.31 0.30 0.30 0.30 0.28 0.28 0.28 0.28 0.27 0.25 0.25 0.24 0.23 0.22
0.51 0.51 0.52 0.52 0.54 0.55 0.56 0.57 0.57 0.57 0.58 0.59 0.59 0.59 0.58 0.58 0.58 0.57 0.57 0.57 0.56 0.54 0.52 0.50 0.48 0.47 0.47 0.47 0.46 0.44 0.42 0.41 0.39 0.37 0.36 0.36 0.35 0.34 0.32 0.31 0.30 0.30 0.29 0.28 0.28 0.28 0.27 0.27 0.26 0.24 0.24 0.23
0.50 0.50 0.51 0.51 0.52 0.53 0.54 0.55 0.56 0.57 0.57 0.57 0.58 0.58 0.58 0.58 0.58 0.57 0.57 0.57 0.57 0.56 0.54 0.53 0.50 0.49 0.48 0.47 0.45 0.43 0.42 0.40 0.39 0.37 0.36 0.35 0.36 0.35 0.33 0.32 0.31 0.30 0.30 0.29 0.29 0.28 0.28 0.28 0.27 0.26 0.25 0.24
0.45 0.48 0.49 0.50 0.50 0.51 0.52 0.53 0.55 0.56 0.55 0.55 0.56 0.56 0.57 0.58 0.57 0.56 0.56 0.56 0.57 0.55 0.54 0.53 0.52 0.50 0.49 0.49 0.46 0.44 0.41 0.39 0.38 0.37 0.36 0.35 0.35 0.35 0.34 0.33 0.32 0.31 0.31 0.30 0.29 0.28 0.28 0.28 0.28 0.28 0.27 0.26
0.43 0.45 0.45 0.47 0.48 0.48 0.49 0.50 0.52 0.53 0.54 0.55 0.55 0.55 0.55 0.55 0.56 0.55 0.55 0.56 0.56 0.55 0.54 0.53 0.51 0.51 0.50 0.49 0.47 0.44 0.42 0.39 0.37 0.35 0.35 0.34 0.34 0.34 0.34 0.33 0.31 0.31 0.30 0.29 0.29 0.28 0.28 0.28 0.29 0.29 0.28 0.27
0.38 0.40 0.43 0.45 0.46 0.46 0.48 0.48 0.49 0.50 0.52 0.53 0.53 0.54 0.55 0.54 0.54 0.54 0.55 0.55 0.56 0.55 0.54 0.52 0.51 0.50 0.49 0.48 0.47 0.44 0.41 0.40 0.37 0.36 0.36 0.35 0.35 0.34 0.32 0.31 0.32 0.31 0.30 0.28 0.27 0.27 0.27 0.28 0.28 0.29 0.28 0.27
0.34 0.37 0.39 0.41 0.44 0.48 0.49 0.48 0.48 0.48 0.51 0.52 0.53 0.54 0.54 0.54 0.55 0.54 0.54 0.55 0.55 0.55 0.53 0.51 0.50 0.49 0.47 0.46 0.45 0.43 0.42 0.40 0.39 0.37 0.35 0.34 0.33 0.34 0.32 0.31 0.32 0.31 0.29 0.26 0.24 0.25 0.25 0.26 0.27 0.28 0.28 0.28
0.35 0.35 0.36 0.38 0.39 0.42 0.46 0.50 0.51 0.51 0.51 0.53 0.53 0.54 0.55 0.56 0.55 0.56 0.57 0.56 0.55 0.54 0.53 0.51 0.49 0.47 0.47 0.45 0.44 0.42 0.41 0.39 0.38 0.37 0.36 0.34 0.33 0.32 0.32 0.31 0.31 0.30 0.29 0.26 0.26 0.24 0.22 0.21 0.22 0.25 0.26 0.27
0.35 0.37 0.38 0.39 0.40 0.41 0.42 0.44 0.50 0.52 0.54 0.54 0.55 0.55 0.56 0.57 0.58 0.57 0.56 0.56 0.56 0.55 0.54 0.52 0.49 0.47 0.46 0.44 0.43 0.42 0.39 0.38 0.37 0.37 0.35 0.34 0.33 0.32 0.30 0.29 0.29 0.31 0.30 0.28 0.26 0.21 0.21 0.21 0.21 0.19 0.21 0.24
0.34 0.35 0.36 0.38 0.38 0.40 0.41 0.41 0.42 0.43 0.45 0.48 0.51 0.53 0.54 0.55 0.56 0.56 0.56 0.56 0.57 0.56 0.55 0.53 0.51 0.48 0.46 0.43 0.42 0.41 0.39 0.37 0.36 0.36 0.36 0.36 0.35 0.33 0.31 0.30 0.29 0.31 0.31 0.29 0.28 0.26 0.24 0.21 0.20 0.19 0.20 0.22
0.35 0.35 0.34 0.34 0.34 0.33 0.35 0.37 0.38 0.38 0.39 0.41 0.43 0.46 0.50 0.53 0.54 0.54 0.54 0.54 0.54 0.57 0.56 0.53 0.52 0.49 0.46 0.43 0.41 0.40 0.38 0.37 0.36 0.35 0.35 0.36 0.35 0.34 0.34 0.32 0.30 0.29 0.30 0.29 0.28 0.28 0.27 0.26 0.23 0.22 0.22 0.22
0.33 0.34 0.34 0.34 0.34 0.34 0.35 0.35 0.37 0.41 0.43 0.42 0.43 0.45 0.45 0.47 0.50 0.51 0.50 0.50 0.50 0.51 0.53 0.52 0.51 0.49 0.46 0.43 0.41 0.40 0.39 0.37 0.35 0.35 0.36 0.37 0.36 0.35 0.35 0.33 0.30 0.29 0.29 0.30 0.29 0.28 0.27 0.26 0.27 0.26 0.23 0.21
Wind_Speed
27 27 27 27 27 27 27 26 26 26 25 25 24 24 24 24 24 24 24 24 24 24 24 25 25 25 25 25 25 25 25 25 25 25 25 25 25 25 25 25 25 24 24 24 24 24 24 24 24 24 24 25
28 28 28 28 28 28 28 28 27 27 26 26 26 25 25 25 25 25 25 25 25 26 26 26 26 26 26 26 26 26 26 26 26 26 26 26 26 26 26 26 26 25 25 25 25 25 25 25 25 25 25 26
29 29 29 29 29 29 29 29 29 28 28 27 27 27 27 27 26 26 26 27 27 27 27 27 27 27 27 27 27 27 28 28 28 28 27 27 27 27 27 27 26 26 26 26 26 26 26 26 26 26 27 26
30 30 30 30 30 30 30 30 30 30 29 29 28 28 28 28 28 28 28 28 28 28 28 28 28 28 28 28 28 28 28 29 29 29 28 28 28 28 28 28 28 27 27 27 27 27 27 27 27 27 27 27
31 31 31 32 32 32 32 31 31 31 31 30 30 30 29 29 29 29 29 29 29 29 29 29 29 29 29 29 29 29 29 29 29 30 29 29 30 29 29 29 29 29 29 29 29 29 29 28 28 28 28 29
33 32 33 33 33 33 33 33 33 33 32 32 31 31 31 30 30 30 30 30 30 30 30 30 30 30 30 30 30 30 30 30 30 30 30 30 30 30 30 30 30 30 30 30 30 30 30 30 30 30 30 30
34 34 34 34 34 34 34 34 34 34 34 33 33 33 32 32 31 31 30 30 30 30 30 30 30 30 30 31 31 31 31 31 31 31 31 31 31 31 31 31 30 31 31 31 31 31 31 31 31 31 31 31
36 36 35 36 36 36 35 36 36 35 35 35 34 34 33 33 32 32 32 31 31 31 31 31 32 32 32 32 32 32 32 32 32 31 31 31 31 32 32 31 31 32 32 32 33 33 32 32 32 32 32 32
37 37 37 37 37 37 37 37 37 37 37 36 36 36 35 34 34 34 33 33 33 33 33 33 33 33 33 33 33 33 33 33 32 32 32 32 32 33 33 33 33 33 33 33 34 34 33 33 33 33 33 33
39 39 39 38 39 38 38 38 38 38 38 38 38 38 37 36 36 35 35 34 34 34 34 34 34 34 34 34 34 34 34 33 33 33 33 33 34 34 34 35 34 35 35 34 34 34 34 34 34 34 34 34
40 40 41 40 40 40 40 40 39 39 40 40 40 40 39 38 38 37 37 36 36 36 36 35 35 35 35 35 35 35 35 34 34 34 35 35 35 35 35 36 36 35 35 35 35 35 35 35 35 35 34 35
41 41 42 42 42 42 42 42 41 41 41 41 41 41 41 40 39 39 38 38 38 37 37 37 37 36 36 36 36 36 36 35 36 36 36 36 36 36 36 36 36 36 36 36 36 36 36 35 35 35 35 35
42 42 42 42 43 43 43 43 43 43 43 42 42 43 42 42 41 40 40 39 39 39 39 38 38 38 38 37 37 37 37 37 37 37 37 37 37 37 37 37 37 37 37 37 37 37 36 36 36 36 36 36
42 43 43 43 43 43 44 44 45 45 44 44 44 44 44 44 43 42 42 41 41 41 40 40 40 39 39 39 38 38 38 38 38 38 38 38 38 38 38 38 38 38 38 38 38 38 37 37 37 37 37 37
39 41 42 43 44 44 44 44 45 45 45 45 46 46 45 45 45 44 44 43 43 42 42 42 41 41 40 40 40 39 39 39 39 39 39 39 39 38 38 38 38 38 38 38 39 38 38 38 38 38 37 37
38 39 40 42 43 44 45 46 46 45 45 46 46 47 47 47 47 46 46 45 45 44 44 43 43 42 42 41 41 40 40 40 40 40 40 40 40 39 39 39 39 39 39 39 39 39 39 39 38 38 38 38
37 38 39 40 41 43 44 46 47 46 46 47 47 47 47 47 48 47 47 47 47 46 45 45 44 44 43 42 42 41 41 41 41 40 40 40 40 40 40 39 39 40 39 39 39 39 39 39 39 39 39 39
36 37 38 39 41 42 43 44 45 46 47 47 48 48 48 48 48 48 48 48 48 47 47 46 46 45 44 44 43 42 42 42 41 41 41 41 41 41 41 40 40 40 40 40 40 40 40 40 40 40 40 40
34 36 38 39 40 41 42 43 44 45 46 47 47 48 49 49 49 49 49 49 48 48 48 47 47 47 46 45 45 44 43 43 42 42 42 42 42 42 42 41 41 41 41 41 41 41 41 41 41 41 41 41
31 33 35 37 39 40 41 42 43 44 45 46 46 47 48 49 49 50 50 50 50 49 49 48 48 47 47 46 46 45 45 44 43 43 43 43 43 42 42 42 42 42 42 42 42 42 42 42 42 41 41 41
32 32 33 34 36 38 40 41 42 43 44 45 46 46 47 48 48 49 50 50 50 50 50 49 49 48 48 47 47 46 46 45 45 44 44 43 44 43 43 43 43 42 42 42 42 42 42 42 42 42 42 42
33 33 33 34 34 36 37 39 41 42 43 44 45 46 46 47 48 48 49 49 50 50 50 50 49 48 48 47 47 47 46 46 45 45 45 44 44 44 43 43 43 43 43 43 43 43 43 43 43 42 42 42
34 35 35 35 35 35 36 37 39 40 42 43 44 45 46 47 47 47 48 48 49 49 49 49 48 48 48 47 47 47 47 46 46 46 45 45 44 44 44 43 43 43 43 43 43 43 43 43 43 43 42 42
36 36 36 36 36 36 36 37 37 38 39 41 42 43 45 46 46 46 47 48 48 48 48 48 47 48 48 47 47 47 47 47 46 46 45 45 44 44 44 43 43 43 42 42 42 42 42 42 43 43 42 42
37 37 37 37 37 37 38 38 38 38 38 39 40 41 42 44 45 46 46 47 47 47 48 47 47 47 47 47 47 47 47 47 47 46 46 45 44 44 44 43 43 43 42 42 42 42 42 43 43 43 43 42
39 39 39 39 39 39 38 38 38 38 38 38 38 39 40 41 43 44 45 46 47 47 47 47 47 47 47 47 47 47 47 47 47 47 47 46 45 44 44 43 43 43 42 42 42 42 41 42 42 42 43 42
41 41 41 41 41 40 40 39 39 38 39 39 39 38 39 39 40 42 43 44 45 46 46 47 47 46 46 46 46 46 47 47 47 47 47 47 46 44 44 44 43 43 43 42 42 41 40 40 40 41 41 42
42 42 42 42 42 42 42 41 41 39 39 39 39 39 38 38 38 39 40 42 43 44 45 46 46 45 45 46 46 47 47 47 48 48 48 48 47 45 44 44 44 44 44 43 42 40 40 39 39 39 39 39
45 44 43 43 43 43 43 42 42 41 40 40 39 39 39 39 39 39 39 41 42 43 44 45 46 46 46 46 47 47 47 48 48 48 48 49 48 47 46 45 44 44 45 45 44 42 40 38 39 39 37 36
46 46 45 44 43 43 43 43 43 42 42 42 41 41 41 41 41 41 41 41 42 43 44 46 46 47 47 48 48 48 48 48 47 48 48 48 48 48 47 46 45 45 45 46 46 45 43 41 40 39 38 37
48 47 47 46 45 44 44 45 45 44 44 44 44 44 43 43 43 44 44 44 45 46 46 47 48 48 49 49 49 48 48 48 48 48 48 48 48 48 48 48 47 46 45 46 46 46 46 45 43 41 40 39
Wind_Direction
247 247 247 246 245 245 244 244 244 244 244 244 244 245 245 245 246 247 248 249 249 248 248 249 249 248 247 247 247 246 246 246 246 247 247 247 247 247 247 247 247 248 249 250 252 255 256 258 260 260 261 260
248 248 248 247 247 246 245 245 245 245 246 246 245 245 246 247 247 248 248 249 249 249 249 249 249 248 248 248 247 247 247 247 247 247 248 248 248 248 248 248 248 249 250 251 254 255 256 258 260 260 261 260
249 249 249 249 248 247 247 246 246 246 247 247 247 247 248 248 249 249 249 249 250 250 249 249 249 249 248 248 248 248 248 248 249 249 249 249 250 250 250 250 251 251 252 253 255 256 257 259 260 261 261 261
250 250 249 249 249 248 248 248 248 247 248 248 248 249 249 250 250 250 250 250 250 250 250 250 250 250 249 249 249 250 250 250 250 250 250 251 251 251 251 252 252 253 253 255 257 257 259 260 261 261 262 261
251 251 250 249 249 249 249 249 249 249 249 249 249 250 251 251 252 252 252 251 251 251 251 251 251 251 251 250 250 251 251 251 251 251 251 252 252 252 252 253 253 254 255 256 258 259 260 261 261 262 262 262
252 252 251 250 250 250 250 250 249 249 250 250 250 250 251 252 253 253 253 252 252 252 252 252 251 251 252 252 251 251 252 252 252 252 252 252 252 253 253 253 255 256 257 258 259 260 261 261 262 262 262 262
252 252 252 252 252 251 251 250 250 250 250 250 251 251 251 252 253 253 253 253 252 252 253 253 252 251 252 253 253 252 252 253 253 253 253 253 253 253 253 254 257 257 258 259 259 261 261 262 262 262 262 262
252 252 252 252 252 252 252 251 250 250 250 250 251 251 251 252 253 253 253 253 253 253 253 253 253 252 252 253 254 254 253 253 253 254 254 254 253 253 254 256 258 259 259 260 260 261 262 262 263 263 263 262
253 253 253 253 253 253 253 252 251 250 250 251 250 251 251 252 252 252 253 254 253 253 253 253 253 253 253 254 254 255 254 254 254 254 254 254 254 254 256 258 259 260 260 261 261 262 262 263 263 263 263 263
255 254 254 254 253 253 253 253 252 251 251 251 251 251 251 252 252 252 253 253 253 253 253 253 253 253 253 254 255 255 255 256 255 255 255 255 255 256 257 259 260 261 261 262 262 262 263 263 264 263 263 263
256 255 255 254 254 254 254 253 253 253 252 252 252 251 251 252 252 252 253 253 253 253 253 254 254 254 254 254 254 255 255 256 256 256 255 256 256 257 258 259 260 261 261 262 262 263 263 264 264 264 264 263
257 256 256 255 255 254 254 253 254 254 253 253 252 252 252 252 253 253 253 254 254 254 254 254 254 254 254 254 254 254 255 256 256 256 256 256 257 258 258 259 260 261 262 262 262 263 263 263 264 264 264 264
258 257 256 256 255 255 254 254 254 253 253 253 253 252 252 252 252 253 253 254 254 254 254 254 254 254 255 255 255 255 255 256 256 256 256 256 257 258 258 259 260 261 261 262 262 262 263 263 263 264 264 264
260 258 257 256 256 255 255 254 254 253 253 252 252 252 251 251 252 252 253 253 253 253 254 254 254 254 254 255 255 255 255 255 256 256 256 257 257 258 258 259 259 260 261 261 261 262 262 263 263 263 264 264
262 260 259 257 256 255 255 255 254 254 254 253 253 252 252 251 251 251 252 253 253 253 253 254 254 254 254 254 254 254 255 255 255 256 256 256 257 257 258 259 259 259 260 260 261 261 262 262 262 263 263 263
265 263 261 260 258 257 255 254 254 255 254 254 254 253 252 252 251 251 251 252 252 252 253 253 253 253 254 254 254 254 254 254 254 255 256 256 256 257 258 258 259 259 260 260 260 260 261 261 262 262 263 263
267 265 263 261 260 259 257 256 255 255 254 254 254 254 253 253 252 252 252 252 252 252 252 252 253 253 253 253 254 254 254 254 255 255 256 256 256 257 257 258 259 259 259 260 260 260 260 261 262 262 262 263
270 267 265 263 262 260 259 257 256 256 255 254 254 253 253 253 253 253 253 253 252 252 252 253 253 253 253 253 253 254 254 254 255 256 256 256 256 257 257 258 259 259 259 260 260 260 260 261 261 262 262 262
274 270 267 265 263 261 260 258 257 257 256 255 254 253 253 253 252 252 252 252 252 252 252 253 253 253 253 253 253 253 253 254 255 255 256 256 256 257 257 258 258 259 259 259 260 260 261 261 261 262 262 262
277 274 271 268 265 263 261 260 258 257 257 256 255 254 254 253 252 252 251 251 251 252 252 252 253 253 253 253 253 253 253 254 254 255 255 255 256 256 257 257 258 258 258 259 259 260 260 261 261 262 262 262
278 276 273 271 268 265 263 261 259 258 257 257 256 255 254 254 253 252 252 251 251 251 252 252 252 253 252 252 253 254 254 254 254 254 255 255 255 256 256 257 257 258 258 259 259 259 260 260 261 261 262 262
277 275 274 272 270 268 265 262 260 259 258 257 257 256 255 254 254 253 252 251 251 251 252 252 252 252 252 252 253 253 253 253 254 254 254 255 255 256 256 257 257 257 258 258 259 259 259 260 260 261 261 261
277 275 273 272 270 268 266 264 262 260 258 258 257 257 256 255 254 253 252 251 251 251 251 251 252 252 252 252 252 253 253 253 254 254 254 255 255 256 256 257 257 257 257 258 259 259 259 259 259 260 260 261
277 275 273 272 270 268 266 265 263 261 259 258 257 256 256 255 254 253 252 251 251 251 251 251 251 252 252 252 252 252 253 254 254 254 253 254 254 254 255 256 256 256 257 258 259 259 259 259 259 259 260 260
277 275 273 271 269 268 266 264 263 261 260 259 258 257 256 255 254 253 252 251 251 251 251 251 251 251 251 251 252 252 254 254 254 253 252 253 254 254 254 255 256 256 256 257 258 259 260 260 260 259 259 260
276 274 272 270 268 267 265 263 262 261 260 260 259 258 257 256 255 253 252 252 251 251 250 250 250 251 251 251 252 254 254 254 253 252 252 252 254 254 254 255 255 255 255 257 258 259 260 260 260 260 259 259
275 274 272 270 268 266 264 262 261 260 259 259 259 258 257 256 255 254 253 252 251 250 250 250 250 251 251 252 253 254 254 254 253 253 252 252 253 254 254 255 255 254 254 256 257 258 259 260 260 260 259 259
274 272 271 270 268 267 265 263 261 259 258 257 257 257 256 255 254 253 252 251 251 250 250 249 249 251 252 252 253 253 254 254 254 253 252 252 252 252 253 254 255 254 254 255 255 256 259 259 260 260 259 258
274 272 270 269 268 267 265 263 262 261 259 258 256 256 255 255 254 253 253 252 251 250 250 250 250 252 253 253 253 254 255 255 255 254 253 252 251 251 251 253 254 254 253 253 254 255 257 258 259 260 258 258
273 271 270 268 267 266 265 264 262 262 261 260 258 257 256 254 253 253 253 252 251 251 250 250 251 252 253 253 253 254 255 255 255 254 253 252 251 250 251 252 253 253 253 253 254 254 256 258 259 259 257 256
273 271 269 268 266 265 264 263 262 262 261 260 260 259 257 256 254 254 253 253 253 252 252 251 252 252 252 253 253 254 254 254 254 254 253 252 251 251 251 251 252 253 253 254 254 254 255 257 258 258 256 256